AGILA

Last updated on Sun Jun 21 2026 00:03:09 GMT+0000 (Coordinated Universal Time)

1 62456U 24252C 26171.46727757 -.00000186 00000+0 00000+0 0 9994 2 62456 0.0639 122.9722 0001257 336.9984 129.0807 1.00271197 5195
UTC large
Height (km)
Speed (km/s)
/
Latitude / Longitude
Inclination (degrees)
Orbital Period (minutes)
Azimuth
Elevation
Range (km)
Doppler Factor

Next 0 passes for location: London (51.5072 / 0.1276)

No passes found over London.
AGILA